When you browse on this site, cookies collect data to enhance your experience and personalize the content and advertising you see.
Visit our Privacy Policy to learn more. By continuing to use the site, you agree to this use of cookies and data.
EN

Hourly Weather Moquegua

Today, 4 July, Saturday

Time Temperature Precipitation Wind Pressure Humidity
00:00 +13°C° 0 mm 0 mps 641 mmHg 53%
01:00 +12°C° 0 mm 0 mps 641 mmHg 54%
02:00 +12°C° 0 mm 0 mps 640 mmHg 54%
03:00 +11°C° 0 mm 0 mps 640 mmHg 54%
04:00 +11°C° 0 mm 0 mps 640 mmHg 55%
05:00 +12°C° 0 mm 0 mps 641 mmHg 50%
06:00 +12°C° 0 mm 0 mps 641 mmHg 46%
07:00 +13°C° 0 mm 0 mps 642 mmHg 42%
08:00 +18°C° 0 mm 1 mps 643 mmHg 35%
09:00 +21°C° 0 mm 1 mps 644 mmHg 29%
10:00 +24°C° 0 mm 2 mps 645 mmHg 23%
11:00 +24°C° 0 mm 3 mps 645 mmHg 22%
12:00 +25°C° 0 mm 3 mps 644 mmHg 22%
13:00 +26°C° 0 mm 4 mps 644 mmHg 21%
14:00 +25°C° 0 mm 3 mps 643 mmHg 25%
15:00 +24°C° 0 mm 3 mps 643 mmHg 28%
16:00 +22°C° 0 mm 3 mps 643 mmHg 32%
17:00 +20°C° 0 mm 2 mps 642 mmHg 40%
18:00 +19°C° 0 mm 1 mps 642 mmHg 49%
19:00 +14°C° 0 mm 0 mps 642 mmHg 57%
20:00 +14°C° 0 mm 0 mps 642 mmHg 58%
21:00 +13°C° 0 mm 0 mps 642 mmHg 58%
22:00 +13°C° 0 mm 0 mps 642 mmHg 58%
23:00 +12°C° 0 mm 0 mps 642 mmHg 59%

Tomorrow, 5 July, Sunday

Time Temperature Precipitation Wind Pressure Humidity
00:00 +12°C° 0 mm 0 mps 641 mmHg 59%
01:00 +12°C° 0 mm 0 mps 641 mmHg 59%
02:00 +11°C° 0 mm 0 mps 640 mmHg 59%
03:00 +11°C° 0 mm 0 mps 640 mmHg 58%
04:00 +11°C° 0 mm 0 mps 640 mmHg 57%
05:00 +12°C° 0 mm 0 mps 640 mmHg 53%
06:00 +12°C° 0 mm 0 mps 641 mmHg 48%
07:00 +13°C° 0 mm 0 mps 641 mmHg 43%
08:00 +18°C° 0 mm 1 mps 642 mmHg 36%
09:00 +21°C° 0 mm 1 mps 643 mmHg 29%
10:00 +24°C° 0 mm 2 mps 644 mmHg 22%
11:00 +25°C° 0 mm 2 mps 644 mmHg 22%
12:00 +26°C° 0 mm 3 mps 643 mmHg 22%
13:00 +26°C° 0 mm 3 mps 643 mmHg 21%
14:00 +25°C° 0 mm 3 mps 642 mmHg 26%
15:00 +24°C° 0 mm 3 mps 642 mmHg 31%
16:00 +22°C° 0 mm 3 mps 642 mmHg 35%
17:00 +20°C° 0 mm 2 mps 642 mmHg 42%
18:00 +19°C° 0 mm 1 mps 641 mmHg 50%
19:00 +15°C° 0 mm 0 mps 641 mmHg 57%
20:00 +14°C° 0 mm 0 mps 641 mmHg 57%
21:00 +14°C° 0 mm 0 mps 641 mmHg 57%
22:00 +14°C° 0 mm 0 mps 641 mmHg 57%
23:00 +13°C° 0 mm 0 mps 641 mmHg 56%

Day after tomorrow, 6 July, Monday

Time Temperature Precipitation Wind Pressure Humidity
00:00 +13°C° 0 mm 0 mps 641 mmHg 55%
01:00 +13°C° 0 mm 0 mps 640 mmHg 54%
02:00 +12°C° 0 mm 0 mps 640 mmHg 54%
03:00 +12°C° 0 mm 0 mps 640 mmHg 53%
04:00 +12°C° 0 mm 0 mps 640 mmHg 53%
05:00 +13°C° 0 mm 0 mps 641 mmHg 49%
06:00 +13°C° 0 mm 0 mps 641 mmHg 45%
07:00 +14°C° 0 mm 0 mps 642 mmHg 41%
08:00 +19°C° 0 mm 1 mps 643 mmHg 34%
09:00 +22°C° 0 mm 1 mps 644 mmHg 27%
10:00 +24°C° 0 mm 2 mps 645 mmHg 20%
11:00 +24°C° 0 mm 3 mps 644 mmHg 22%
12:00 +25°C° 0 mm 3 mps 644 mmHg 23%
13:00 +25°C° 0 mm 4 mps 643 mmHg 24%
14:00 +24°C° 0 mm 3 mps 643 mmHg 28%
15:00 +22°C° 0 mm 3 mps 643 mmHg 32%
16:00 +21°C° 0 mm 2 mps 642 mmHg 35%
17:00 +20°C° 0 mm 1 mps 642 mmHg 42%
18:00 +19°C° 0 mm 1 mps 642 mmHg 50%
19:00 +15°C° 0 mm 0 mps 642 mmHg 57%
20:00 +14°C° 0 mm 0 mps 643 mmHg 59%
21:00 +14°C° 0 mm 1 mps 643 mmHg 62%
22:00 +14°C° 0 mm 1 mps 643 mmHg 65%
23:00 +13°C° 0 mm 1 mps 643 mmHg 65%

7 July, Tuesday

Time Temperature Precipitation Wind Pressure Humidity
00:00 +12°C° 0 mm 0 mps 643 mmHg 66%
01:00 +11°C° 0 mm 0 mps 642 mmHg 66%
02:00 +11°C° 0 mm 0 mps 642 mmHg 66%
03:00 +11°C° 0 mm 0 mps 642 mmHg 66%
04:00 +10°C° 0 mm 0 mps 642 mmHg 66%
05:00 +11°C° 0 mm 0 mps 642 mmHg 62%
06:00 +12°C° 0 mm 0 mps 643 mmHg 58%
07:00 +13°C° 0 mm 0 mps 643 mmHg 53%
08:00 +16°C° 0 mm 1 mps 644 mmHg 46%
09:00 +18°C° 0 mm 2 mps 645 mmHg 39%
10:00 +21°C° 0 mm 3 mps 645 mmHg 32%
11:00 +21°C° 0 mm 3 mps 645 mmHg 32%
12:00 +22°C° 0 mm 3 mps 645 mmHg 31%
13:00 +22°C° 0 mm 3 mps 645 mmHg 31%
14:00 +21°C° 0 mm 3 mps 644 mmHg 36%
15:00 +21°C° 0 mm 3 mps 644 mmHg 40%
16:00 +20°C° 0 mm 3 mps 644 mmHg 44%
17:00 +18°C° 0 mm 2 mps 644 mmHg 51%
18:00 +16°C° 0 mm 1 mps 644 mmHg 59%
19:00 +14°C° 0 mm 0 mps 643 mmHg 67%
20:00 +13°C° 0 mm 0 mps 643 mmHg 65%
21:00 +13°C° 0 mm 0 mps 643 mmHg 64%
22:00 +12°C° 0 mm 0 mps 643 mmHg 63%
23:00 +12°C° 0 mm 0 mps 643 mmHg 62%

8 July, Wednesday

Time Temperature Precipitation Wind Pressure Humidity
00:00 +12°C° 0 mm 0 mps 643 mmHg 61%
01:00 +12°C° 0 mm 1 mps 642 mmHg 60%
02:00 +11°C° 0 mm 0 mps 642 mmHg 59%
03:00 +11°C° 0 mm 0 mps 641 mmHg 58%
04:00 +10°C° 0 mm 0 mps 641 mmHg 56%
05:00 +11°C° 0 mm 0 mps 642 mmHg 52%
06:00 +12°C° 0 mm 0 mps 642 mmHg 48%
07:00 +13°C° 0 mm 0 mps 643 mmHg 44%
08:00 +18°C° 0 mm 1 mps 643 mmHg 37%
09:00 +19°C° 0 mm 2 mps 644 mmHg 31%
10:00 +23°C° 0 mm 2 mps 645 mmHg 25%
11:00 +24°C° 0 mm 3 mps 645 mmHg 25%
12:00 +24°C° 0 mm 3 mps 644 mmHg 25%
13:00 +25°C° 0 mm 3 mps 644 mmHg 25%
14:00 +24°C° 0 mm 3 mps 643 mmHg 29%
15:00 +22°C° 0 mm 3 mps 643 mmHg 33%
16:00 +22°C° 0 mm 3 mps 643 mmHg 36%
17:00 +19°C° 0 mm 2 mps 642 mmHg 45%
18:00 +18°C° 0 mm 1 mps 642 mmHg 55%
19:00 +14°C° 0 mm 0 mps 642 mmHg 64%
20:00 +13°C° 0 mm 0 mps 642 mmHg 64%
21:00 +13°C° 0 mm 0 mps 642 mmHg 63%
22:00 +12°C° 0 mm 0 mps 642 mmHg 62%
23:00 +12°C° 0 mm 0 mps 641 mmHg 61%

9 July, Thursday

Time Temperature Precipitation Wind Pressure Humidity
00:00 +12°C° 0 mm 0 mps 641 mmHg 59%
01:00 +11°C° 0 mm 0 mps 641 mmHg 58%
02:00 +11°C° 0 mm 0 mps 640 mmHg 59%
03:00 +10°C° 0 mm 0 mps 640 mmHg 59%
04:00 +10°C° 0 mm 0 mps 640 mmHg 60%
05:00 +11°C° 0 mm 0 mps 640 mmHg 54%
06:00 +12°C° 0 mm 0 mps 641 mmHg 49%
07:00 +13°C° 0 mm 0 mps 642 mmHg 44%
08:00 +18°C° 0 mm 1 mps 643 mmHg 36%
09:00 +21°C° 0 mm 1 mps 644 mmHg 28%
10:00 +24°C° 0 mm 2 mps 645 mmHg 20%
11:00 +25°C° 0 mm 3 mps 644 mmHg 21%
12:00 +25°C° 0 mm 3 mps 644 mmHg 21%
13:00 +26°C° 0 mm 4 mps 644 mmHg 21%
14:00 +25°C° 0 mm 3 mps 643 mmHg 27%
15:00 +22°C° 0 mm 3 mps 643 mmHg 32%
16:00 +21°C° 0 mm 3 mps 642 mmHg 37%
17:00 +19°C° 0 mm 2 mps 642 mmHg 44%
18:00 +19°C° 0 mm 1 mps 642 mmHg 51%
19:00 +15°C° 0 mm 0 mps 642 mmHg 58%
20:00 +14°C° 0 mm 0 mps 642 mmHg 58%
21:00 +14°C° 0 mm 0 mps 642 mmHg 58%
22:00 +13°C° 0 mm 0 mps 642 mmHg 58%
23:00 +13°C° 0 mm 0 mps 642 mmHg 57%
Show more